Content
SEND FEEDBACK

Daily
Averages
Monthly
Summary
United States of America

UMATAC, GUAM


Home > North America > United States > Guam
Elevation: 190 feet     Latitude: 13 17N     Longitude: 144 40E

WEATHER
 
SELECT A DAY
Number of Records: 354,480;   Date Range: 1/1/95 - 11/23/14
 
SHARE

PRINT THIS DATA

[ ← Previous Day ]
WEATHER ALMANAC - JUNE 17, 2014
[ Next Day → ]
[ °C ]   °F
Weather ElementAverageHighLow
Temperature81.2 °F86 °F (11:38 am)77.2 °F (11:58 pm)
Dewpoint76.4 °F78.8 °F (5:42 pm)74.7 °F (1:58 am)
Humidity85.6 %94 % (9:19 am)73 % (12:58 pm)
Barometer29.85 in29.91 in (9:04 am)29.79 in (3:58 pm)
Wind Speed6 mph11.5 mph (12:08 pm)
Weather ElementAverage
Visibility9.2 mi
Wind DirectionSSW (202 °)

Weather ElementTotal
Precipitation0.13 in
Cooling Degree Days16.6 (Base 65)
Growing Degree Days31.6 (Base 50)
Averaged from 44 records on June 17, 2014
WEATHER CONDITIONS BREAKOUT
WIND DIRECTION BREAKOUT
WEATHER BY HOUR - JUNE 17, 2014
[ °C ]   °F
Local TimeTemperatureDewpointHumidityBarometerVisibilityWind DirectionWind SpeedGust SpeedPrecipitationEventsConditions
1:58 AM79.7 °F74.7 °F84 %29.82 in10.0 miWest (260°)1.2 mphClear
2:58 AM78.8 °F74.8 °F88 %29.82 in10.0 miWSW (250°)1.2 mphClear
3:58 AM78.3 °F74.8 °F89 %29.82 in10.0 miWest (280°)2.3 mphClear
4:58 AM77.9 °F75.2 °F91 %29.83 in10.0 miWest (280°)1.2 mphClear
5:58 AM78.1 °F75.0 °F90 %29.84 in10.0 miWest (260°)3.5 mphClear
6:58 AM81.3 °F77.0 °F87 %29.86 in10.0 miWest (270°)2.3 mphClear
7:58 AM83.3 °F76.5 °F80 %29.86 in10.0 miWest (270°)4.6 mphClear
8:58 AM82.4 °F77.0 °F84 %29.87 in10.0 miNW (310°)8.1 mphMostly Cloudy
8:59 AM82.4 °F77.0 °F84 %29.90 in10.0 miNW (320°)9.2 mphRainLight Rain
9:04 AM82.4 °F77.0 °F84 %29.91 in1.5 miWest (260°)5.8 mphRainHeavy Rain
9:09 AM80.6 °F75.2 °F84 %29.91 in1.0 miSW (230°)2.3 mphRainHeavy Rain
9:14 AM78.8 °F75.2 °F89 %29.90 in1.8 miSW (220°)3.5 mphRainLight Rain
9:19 AM78.8 °F77.0 °F94 %29.91 in5.0 miWest (260°)4.6 mphRainLight Rain
9:25 AM78.8 °F75.2 °F89 %29.91 in10.0 miNNW (330°)2.3 mphMostly Cloudy
9:58 AM80.2 °F76.1 °F87 %29.87 in10.0 miWest (260°)3.5 mph0.13 inMostly Cloudy
10:58 AM83.3 °F77.9 °F84 %29.86 in10.0 miWest (260°)5.8 mphPartly Cloudy
11:28 AM84.2 °F75.2 °F74 %29.87 in10.0 miVariable1.2 mphMostly Cloudy
11:33 AM84.2 °F77.0 °F79 %29.87 in10.0 miVariable5.8 mphMostly Cloudy
11:38 AM86.0 °F77.0 °F74 %29.87 in10.0 miWest (280°)4.6 mphMostly Cloudy
11:58 AM84.9 °F76.6 °F76 %29.83 in10.0 miNorth (360°)8.1 mphMostly Cloudy
12:08 PM86.0 °F77.0 °F74 %29.86 in10.0 miNorth (10°)11.5 mphScattered Clouds
12:58 PM85.5 °F75.7 °F73 %29.81 in10.0 miNNW (340°)9.2 mphScattered Clouds
1:58 PM86.0 °F76.6 °F73 %29.81 in10.0 miNorth (350°)9.2 mphScattered Clouds
2:58 PM84.6 °F77.0 °F78 %29.81 in10.0 miNNW (330°)9.2 mphScattered Clouds
3:58 PM84.9 °F77.0 °F77 %29.79 in10.0 miNNE (20°)6.9 mphOvercast
4:58 PM84.6 °F76.1 °F76 %29.81 in10.0 miNorth (360°)8.1 mphOvercast
5:42 PM82.4 °F78.8 °F89 %29.84 in8.0 miNE (50°)9.2 mphRainRain
5:58 PM81.0 °F78.4 °F92 %29.82 in10.0 miNNE (30°)10.4 mph0.00 inRainLight Rain
6:08 PM80.6 °F77.0 °F89 %29.85 in10.0 miNNE (30°)9.2 mphMostly Cloudy
6:11 PM80.6 °F77.0 °F89 %29.85 in10.0 miNNE (30°)9.2 mphLight Drizzle
6:16 PM80.6 °F77.0 °F89 %29.85 in10.0 miNNE (30°)8.1 mphLight Drizzle
6:21 PM80.6 °F77.0 °F89 %29.85 in10.0 miNNE (20°)6.9 mphLight Drizzle
6:26 PM80.6 °F77.0 °F89 %29.85 in10.0 miNNE (20°)6.9 mphLight Drizzle
6:30 PM80.6 °F77.0 °F89 %29.85 in10.0 miNNE (20°)5.8 mphOvercast
6:35 PM80.6 °F77.0 °F89 %29.85 in10.0 miNNE (20°)6.9 mphOvercast
6:58 PM80.6 °F76.5 °F87 %29.83 in10.0 miNorth (10°)8.1 mph0.00 inOvercast
7:17 PM80.6 °F75.2 °F84 %29.87 in10.0 miNorth (360°)10.4 mphLight Drizzle
7:27 PM78.8 °F77.0 °F94 %29.87 in7.0 miNNW (340°)10.4 mphRainLight Rain
7:34 PM78.8 °F77.0 °F94 %29.88 in10.0 miNNW (340°)9.2 mphMostly Cloudy
7:58 PM77.7 °F75.9 °F94 %29.86 in10.0 miNW (320°)5.8 mph0.00 inMostly Cloudy
8:58 PM78.4 °F75.4 °F90 %29.86 in10.0 miCalmMostly Cloudy
9:58 PM78.4 °F75.6 °F91 %29.87 in10.0 miNW (320°)1.2 mphMostly Cloudy
10:58 PM77.7 °F75.2 °F92 %29.87 in10.0 miWest (280°)4.6 mphMostly Cloudy
11:58 PM77.2 °F75.0 °F93 %29.86 in10.0 miWNW (300°)4.6 mphMostly Cloudy
Hourly data recorded from PGUA, located miles away from Umatac, Guam







STORIES FROM OUR PARTNERS